EHI
21 23 23 22 21 21 19 17 18 20 23 23 21 16 11 10 10 9 8 6 4 3 3 3 4 4 3 1 1 2 2 2 1 1 4 11 16 11 6 3 2 1 0
22 25 27 27 27 26 24 22 21 21 20 20 18 14 11 9 9 8 7 6 4 3 3 3 3 4 3 2 1 1 1 1 1 1 4 10 14 12 8 5 2 0 0
25 28 31 32 31 30 29 29 26 22 19 17 15 13 10 8 7 7 7 7 6 4 3 3 3 3 3 3 2 1 0 0 0 1 3 6 8 9 8 5 2 0 0
26 27 31 31 29 28 30 31 29 23 19 16 14 12 10 8 7 7 8 9 9 7 4 4 3 3 3 3 2 1 0 0 0 1 1 2 2 4 6 4 1 0 0
27 28 28 27 26 25 26 27 26 23 19 17 15 12 9 7 6 7 8 9 10 8 5 4 3 3 2 2 1 0 0 0 0 0 0 1 1 3 4 3 1 0 0
30 29 27 25 23 22 22 23 24 23 20 18 19 16 10 5 3 3 4 6 9 9 7 5 3 1 1 1 0 0 0 0 0 1 0 0 1 2 2 1 0 0 0
31 30 28 26 23 21 21 23 26 27 25 24 25 22 14 6 1 0 1 4 7 9 8 6 3 1 0 0 0 0 0 0 0 0 0 0 1 2 1 0 0 0 0
30 30 28 27 26 25 25 28 31 34 32 29 28 26 18 7 1 0 0 2 5 7 7 6 4 2 1 1 1 0 0 0 0 0 0 0 0 0 0 0 0 0 0
30 29 28 29 30 29 30 32 36 37 35 31 28 25 18 8 2 0 0 2 4 5 5 6 5 3 1 1 1 1 1 1 0 0 0 0 0 0 0 0 0 0 0
33 30 29 29 29 30 32 34 34 34 32 28 23 20 16 9 3 0 0 1 2 3 3 4 3 2 1 0 0 1 1 0 0 0 0 0 0 0 0 0 0 0 0
35 33 30 28 25 25 28 30 28 26 23 20 17 15 11 6 2 0 0 0 0 1 1 2 1 0 0 0 0 0 0 0 0 0 1 0 0 0 0 0 0 0 0
30 29 26 23 20 19 21 23 21 18 15 12 9 8 5 2 1 0 0 0 0 0 0 1 1 0 0 0 0 0 0 0 0 0 0 0 0 0 0 0 0 0 0
20 19 18 16 14 13 13 13 13 11 8 5 3 3 1 0 0 0 0 0 0 0 0 0 0 0 0 0 0 0 0 0 0 0 0 0 0 0 0 0 0 0 0
12 11 10 9 8 7 6 5 5 5 3 2 2 1 0 0 0 0 0 0 0 0 0 0 0 0 0 0 0 0 0 0 0 0 0 0 0 0 0 0 0 0 0
8 7 5 4 3 2 1 1 1 1 1 1 1 1 0 0 0 0 0 0 0 0 0 0 0 0 0 0 0 0 0 0 0 0 0 0 0 0 0 0 0 0 0
4 4 3 2 1 0 0 0 0 0 0 0 0 0 0 0 0 0 0 0 0 0 0 0 0 0 0 0 0 0 0 0 0 0 0 0 0 0 0 0 0 0 0
1 1 1 1 0 0 0 0 0 0 0 0 0 0 0 0 0 0 0 0 0 0 0 0 0 0 0 0 0 0 0 0 0 0 0 0 0 0 0 0 0 0 0
0 0 0 0 0 0 0 0 0 0 0 0 0 0 0 0 0 0 0 0 0 0 0 0 0 0 0 0 0 0 0 0 0 0 0 0 0 0 0 0 0 0 0
0 0 0 0 0 0 0 0 0 0 0 0 0 0 0 0 0 0 0 0 0 0 0 0 0 0 0 0 0 0 0 0 0 0 0 0 0 0 0 0 0 0 0
0 0 0 0 0 0 0 0 0 0 0 0 0 0 0 0 0 0 0 0 0 0 0 0 0 0 0 0 0 0 0 0 0 0 0 0 0 0 0 0 0 0 0
0 0 0 0 0 0 0 0 0 0 0 0 0 0 0 0 0 0 0 0 0 0 0 0 0 0 0 0 0 0 0 0 0 0 0 0 0 0 0 0 0 0 0
0 0 0 0 0 0 0 0 0 0 0 0 0 0 0 0 0 0 0 0 0 0 0 0 0 0 0 0 0 0 0 0 0 0 0 0 0 0 0 0 0 0 0
0 0 0 0 0 0 0 0 0 0 0 0 0 0 0 0 0 0 0 0 0 0 0 0 0 0 0 0 0 0 0 0 0 0 0 0 0 0 0 0 0 0 0
0 0 0 0 0 0 0 0 0 0 0 0 0 0 0 0 0 0 0 0 0 0 0 0 0 0 0 0 0 0 0 0 0 0 0 0 0 0 0 0 0 0 0
0 0 0 0 0 0 0 0 0 0 0 0 0 0 0 0 0 0 0 0 0 0 0 0 0 0 0 0 0 0 0 0 0 0 0 0 0 0 0 0 0 0 0
0 0 0 0 0 0 0 0 0 0 0 0 0 0 0 0 0 0 0 0 0 0 0 0 0 0 0 0 0 0 0 0 0 0 0 0 0 0 0 0 0 0 0
Wind_Speed
9 8 8 7 7 7 6 6 6 5 5 6 6 6 6 6 6 5 5 4 5 5 5 4 4 4 3 3 2 2 2 2 3 3 2 1 3 3 4 4 4 5 8
8 8 7 7 7 7 7 6 6 6 6 6 6 6 7 7 6 6 6 6 6 6 6 5 5 5 5 4 3 3 2 2 2 4 2 1 2 4 5 5 5 6 6
8 8 7 7 7 7 6 6 6 6 6 6 6 6 6 5 6 6 6 6 6 6 5 5 5 5 5 4 4 4 3 4 3 3 4 3 2 4 4 5 6 5 7
7 7 7 7 7 6 5 5 5 5 6 6 6 5 5 5 4 5 6 5 5 5 5 5 5 5 5 4 5 4 4 4 4 3 4 3 3 4 3 4 4 4 5
7 7 7 6 6 6 5 5 5 5 6 5 4 4 4 4 5 5 5 6 5 5 5 5 5 5 5 4 4 3 4 4 4 4 4 4 3 2 3 3 4 4 5
5 5 6 6 5 5 5 5 5 4 4 4 4 4 4 4 3 3 3 4 4 4 5 5 5 5 5 6 6 6 4 5 5 4 4 4 4 3 3 3 3 3 4
5 5 5 5 5 4 5 5 4 4 4 3 4 4 3 0 0 2 3 3 3 3 3 4 5 5 4 4 6 9 8 8 7 5 6 6 5 4 3 4 4 4 5
5 4 4 5 5 5 4 4 3 3 3 3 3 2 2 1 0 1 2 2 2 2 2 2 2 3 3 2 4 5 5 5 7 7 6 7 6 4 4 4 5 5 6
5 5 4 4 4 4 4 3 3 3 3 2 2 3 3 3 3 3 2 1 1 2 1 2 1 1 2 3 3 4 4 4 6 8 8 9 9 9 6 3 4 5 7
5 5 5 5 4 4 4 3 3 3 3 3 3 4 5 5 6 6 3 1 1 1 0 1 3 2 3 3 2 3 4 4 4 5 6 7 8 9 10 7 6 6 6
6 6 6 6 5 5 4 3 3 3 4 4 5 6 6 6 6 6 5 3 3 2 2 1 2 4 4 4 3 3 4 4 5 5 5 5 4 4 4 5 5 5 6
7 6 6 6 5 5 5 4 4 3 4 4 5 5 5 5 6 6 6 5 5 3 3 3 2 3 3 4 3 4 5 5 4 4 4 4 3 3 2 3 4 5 5
8 8 8 8 7 6 6 6 4 4 3 3 3 4 5 5 5 6 5 5 5 3 3 4 4 4 4 4 4 5 4 3 3 4 4 3 3 3 2 3 4 4 5
9 8 8 9 9 9 8 8 7 7 6 5 5 5 5 5 5 5 4 3 4 3 4 5 6 5 4 5 4 3 3 3 3 3 4 4 3 3 3 2 3 3 4
8 7 8 8 8 8 9 8 8 7 6 6 6 5 5 5 4 5 4 4 4 4 5 5 3 2 2 2 2 2 2 1 2 3 3 4 4 4 4 3 3 3 4
7 6 6 6 6 6 7 8 12 10 11 12 10 8 6 6 4 6 7 7 7 6 4 4 3 3 4 4 4 3 3 3 3 3 3 3 4 4 4 4 4 4 5
7 6 4 5 5 5 5 5 5 6 8 9 9 9 7 4 4 6 8 9 8 5 3 3 4 4 4 5 5 5 5 4 4 4 5 5 5 5 5 5 5 5 5
7 7 5 5 4 4 4 3 4 4 4 4 4 4 3 2 4 6 8 7 4 3 3 5 5 5 5 5 5 6 6 6 5 5 5 5 6 6 6 5 5 5 6
6 5 5 4 4 4 4 4 4 5 4 4 4 2 2 3 4 5 6 4 6 6 6 6 6 6 6 6 6 6 6 5 6 6 6 6 6 6 6 6 6 7 7
5 5 4 3 4 4 4 5 5 5 5 5 5 5 4 3 3 3 3 4 5 6 6 6 6 6 6 6 6 6 7 6 6 6 7 7 7 7 8 8 7 7 7
4 4 3 4 5 6 6 6 6 5 5 5 5 6 5 5 5 6 6 6 6 6 6 6 6 6 6 6 6 7 8 7 7 7 7 7 8 7 7 7 7 7 7
4 4 5 6 6 6 5 5 5 5 6 6 5 5 6 6 6 6 6 6 6 6 6 6 6 6 6 7 7 7 7 7 8 8 8 8 8 8 8 8 8 7 7
4 5 5 5 5 5 5 6 7 7 7 7 7 6 6 6 6 6 6 6 6 6 6 5 6 6 6 6 6 6 6 7 8 9 9 9 9 8 8 8 10 10 9
5 5 6 6 6 6 6 6 6 6 6 6 6 6 6 5 6 7 6 6 6 6 5 5 6 8 9 7 6 6 6 7 8 8 10 9 9 9 8 8 8 9 9
5 6 6 6 6 6 6 6 6 6 6 6 6 5 6 6 6 6 6 6 7 7 7 7 5 7 10 11 10 8 8 8 7 8 8 8 9 10 9 9 8 8 8
6 6 6 6 6 6 5 5 5 6 5 5 5 6 6 6 6 6 6 6 7 7 7 6 9 10 10 9 11 9 8 9 9 8 7 7 9 8 8 7 9 8 8
Wind_Direction
169 174 173 174 182 180 185 190 183 178 170 175 184 185 189 189 192 199 219 208 209 221 233 229 223 254 284 294 267 257 258 256 267 275 257 193 163 170 163 213 216 199 206
167 170 172 177 180 180 186 186 181 181 181 185 190 190 197 198 194 198 219 221 215 219 228 232 226 232 233 262 283 278 264 255 254 277 278 262 207 192 186 213 232 230 225
164 168 170 180 185 185 183 181 183 185 188 193 193 195 203 202 199 203 215 225 226 225 223 225 228 233 234 237 247 267 273 264 232 250 263 251 236 216 203 218 238 249 256
163 168 172 178 181 180 180 182 184 187 191 197 194 197 201 206 208 211 216 220 226 230 228 228 229 228 227 236 245 249 264 273 267 258 262 255 242 231 206 214 239 241 251
158 163 167 168 171 175 177 182 180 182 193 193 188 193 200 210 220 218 218 221 218 229 233 230 231 229 224 221 244 245 256 259 263 258 260 263 256 244 230 225 241 250 241
146 150 150 156 163 168 169 173 176 181 187 182 185 186 198 219 227 215 221 238 221 227 239 240 240 229 220 220 235 245 246 251 259 263 264 263 265 260 256 254 253 262 265
141 149 148 153 159 166 177 177 179 181 180 180 184 184 186 231 285 189 208 238 242 235 243 248 253 255 225 223 231 237 243 242 237 253 268 274 283 290 292 286 281 277 270
131 137 144 155 160 160 163 167 170 164 168 174 170 162 144 103 68 203 232 225 257 270 269 266 258 292 311 297 261 246 241 241 236 234 246 259 269 281 276 273 274 275 269
132 133 131 136 147 149 153 150 154 155 157 159 147 134 114 74 65 59 31 271 290 301 319 338 332 309 335 318 281 273 264 260 250 245 240 246 250 256 254 262 265 266 271
119 118 115 107 115 126 128 124 121 121 122 116 115 107 100 83 64 57 29 355 343 333 345 39 52 37 3 353 312 290 279 284 291 287 266 260 255 253 242 234 247 258 267
109 103 101 104 103 94 94 98 102 108 108 101 96 89 85 80 73 55 38 12 352 341 349 38 52 41 19 354 325 299 291 299 294 282 274 267 260 254 248 237 236 242 254
96 93 89 85 86 89 87 84 84 94 109 111 109 105 95 80 69 58 44 29 11 5 8 18 21 355 329 311 299 292 300 299 284 284 279 277 279 277 272 267 258 253 250
86 81 79 75 62 60 67 70 70 67 72 83 91 92 85 77 65 48 31 18 13 4 5 359 328 300 294 280 264 278 289 280 285 288 289 292 291 288 288 281 275 266 264
78 79 79 76 69 57 52 52 50 40 41 48 53 60 68 57 37 18 8 8 360 355 345 320 291 272 275 290 287 257 245 260 278 292 302 304 307 307 296 292 295 297 290
75 72 78 79 77 72 65 55 59 51 52 56 49 52 53 51 25 6 3 0 353 350 329 306 296 298 283 280 292 303 300 304 303 309 316 319 322 321 312 304 292 292 288
73 67 72 82 85 92 95 80 58 69 68 67 66 71 73 66 34 14 3 347 332 334 327 312 332 351 351 348 344 344 351 356 348 337 328 323 317 313 310 309 304 298 295
71 68 67 76 79 87 95 104 104 81 67 66 69 71 75 59 24 3 352 340 327 333 329 341 358 4 359 356 355 353 349 349 350 339 330 325 322 317 312 308 308 306 302
58 61 53 62 62 67 76 83 93 109 113 98 85 81 65 19 345 340 344 343 348 11 6 7 7 3 359 358 356 351 344 341 341 336 332 331 329 323 319 316 314 311 309
57 52 44 46 53 59 58 60 62 60 71 91 97 70 347 313 306 328 347 355 4 14 14 11 7 3 0 358 353 346 340 337 338 334 331 331 331 326 323 321 316 316 313
74 64 40 46 53 52 50 51 52 49 50 56 54 42 9 348 6 21 25 14 13 16 12 6 1 356 357 358 353 348 344 340 341 343 343 341 336 329 325 323 322 321 317
70 78 54 47 51 47 44 45 44 40 43 55 57 50 11 3 21 21 22 21 16 10 6 358 353 353 359 355 351 347 345 344 346 345 341 335 332 328 323 320 319 317 313
43 55 57 54 53 48 39 39 41 42 41 47 48 46 22 14 20 21 19 18 18 11 7 1 356 359 1 355 348 345 346 348 347 341 334 327 323 319 318 316 315 314 311
46 54 61 62 61 55 40 41 40 40 41 39 35 32 28 22 22 22 19 17 12 7 2 356 349 353 356 349 345 355 1 355 344 334 327 321 317 314 312 309 308 307 305
39 49 58 58 53 48 48 46 45 41 42 40 34 29 27 24 22 22 18 14 3 359 355 350 348 354 359 359 1 11 8 350 335 325 321 312 307 303 302 301 301 303 305
39 45 51 54 54 54 49 45 42 37 35 33 29 25 23 22 24 23 17 9 357 353 350 350 355 360 4 13 10 4 353 339 326 321 311 301 298 298 298 300 302 303 305
39 41 50 57 58 56 52 49 46 40 34 32 29 28 24 23 24 19 13 5 354 352 355 357 2 14 15 12 5 358 345 333 324 315 305 295 292 294 301 302 307 308 309